« Back
NWS Peachtree City, Ga » Text Product » GA Regional Weather Roundup


Printer-friendly Version
Current Version              Previous Versions:   1  2  3  4  5  6  7  8  9  

Regional Weather Roundup

112
ASUS42 KFFC 251303
RWRGA
WEATHER ROUNDUP FOR GEORGIA
NATIONAL WEATHER SERVICE PEACHTREE CITY GA
900 AM EDT MON JUL 25 2016

NOTE: "FAIR" INDICATES FEW OR NO CLOUDS BELOW 12,000 FEET WITH NO
SIGNIFICANT WEATHER AND/OR OBSTRUCTIONS TO VISIBILITY.

* = USE WITH CAUTION. THE STATIONS MARKED WITH AN ASTERISK MAY NOT
REPORT WEATHER SUCH AS PRECIPITATION, FOG, OR THUNDER AND ARE NOT
QUALITY CONTROLLED BY NWS.

THE REMARK "TC" DENOTES TEMPERATURE READING IN DEGREES CELSIUS.

GAZ001>058-251400-
NORTH GEORGIA

CITY           SKY/WX    TMP DP  RH WIND       PRES   REMARKS
ATLANTA        MOSUNNY   84  70  62 W7        30.10S
ATHENS         SUNNY     82  73  74 W3        30.09R
CHAMBLEE       SUNNY     81  71  71 VRB3      30.10S
PEACHTREE CITY SUNNY     81  71  71 CALM      30.11R
ROME           SUNNY     80  73  79 CALM      30.09R
WEST ATLANTA   SUNNY     81  72  74 CALM      30.09S
CARTERSVILLE   SUNNY     78  73  84 CALM      30.10S


CITY           SKY/WX    TMP DP  RH WIND       PRES   REMARKS
DALTON*        SUNNY     77  73  88 CALM      30.10S
LAWRENCEVILLE* SUNNY     81  73  78 CALM      30.09S
MARIETTA       MOSUNNY   79  73  83 CALM      30.11R
KENNESAW*      SUNNY     79  72  78 CALM      30.07S
CANTON*        SUNNY     77  66  69 CALM      30.13S
BLAIRSVILLE*     N/A    N/A N/A N/A MISG      30.17S
$$

GAZ059>098-102>109-251400-
CENTRAL GEORGIA

CITY           SKY/WX    TMP DP  RH WIND       PRES   REMARKS
AUGUSTA-BUSH   MOSUNNY   81  72  74 S7        30.07S
AUGUSTA-DANIEL SUNNY     81  72  74 S7        30.09R
COLUMBUS       SUNNY     82  72  71 VRB3      30.08R
MACON          SUNNY     81  73  76 W3        30.08R
ROBINS AFB     SUNNY     82  74  76 W3        30.07R


CITY           SKY/WX    TMP DP  RH WIND       PRES   REMARKS
LAGRANGE*      SUNNY     82  77  85 CALM      30.10R HX  91
MILLEDGEVILLE* SUNNY     81  73  78 CALM      30.09R
$$

GAZ099>101-110>166-251400-
SOUTH GEORGIA

CITY           SKY/WX    TMP DP  RH WIND       PRES   REMARKS
SAVANNAH       MOSUNNY   82  72  71 SW6       30.10R
VALDOSTA       SUNNY     78  74  87 S6        30.08R
ALMA           SUNNY     79  73  82 S3        30.09R
ST SIMONS      SUNNY     83  72  69 SW8       30.09R
FT STEWART     SUNNY     78  73  83 CALM      30.07R
ALBANY         SUNNY     80  75  84 CALM      30.10R
HUNTER AFB     SUNNY     83  76  80 SW6       30.07R HX  91
MOODY AFB      SUNNY     78  73  86 E2        30.08R
BRUNSWICK      SUNNY     82  73  74 SW3       30.10S


CITY           SKY/WX    TMP DP  RH WIND       PRES   REMARKS
BAINBRIDGE*    SUNNY     81  75  83 CALM      30.07S
MOULTRIE*      SUNNY     77  73  88 CALM      30.09R
VIDALIA*       SUNNY     81  72  74 SW3       30.10R
WAYCROSS*      SUNNY     82  77  85 CALM      30.10R
DOUGLAS*       SUNNY     79  73  83 CALM      30.11R
$$




USA.gov is the U.S. government's official web portal to all federal, state and local government web resources and services.